Year,Month,Day,Hour,Minute,Value (Times are PST for temperature in C)
2019,07,04,00,00,17.90
2019,07,04,00,01,17.80
2019,07,04,00,02,17.80
2019,07,04,00,03,17.80
2019,07,04,00,04,17.80
2019,07,04,00,05,17.80
2019,07,04,00,06,17.80
2019,07,04,00,07,17.70
2019,07,04,00,08,17.70
2019,07,04,00,09,17.70
2019,07,04,00,10,17.70
2019,07,04,00,11,17.60
2019,07,04,00,12,17.60
2019,07,04,00,13,17.60
2019,07,04,00,14,17.60
2019,07,04,00,15,17.50
2019,07,04,00,16,17.50
2019,07,04,00,17,17.50
2019,07,04,00,18,17.40
2019,07,04,00,19,17.40
2019,07,04,00,20,17.40
2019,07,04,00,21,17.40
2019,07,04,00,22,17.40
2019,07,04,00,23,17.40
2019,07,04,00,24,17.30
2019,07,04,00,25,17.30
2019,07,04,00,26,17.30
2019,07,04,00,27,17.30
2019,07,04,00,28,17.20
2019,07,04,00,29,17.20
2019,07,04,00,30,17.20
2019,07,04,00,31,17.20
2019,07,04,00,32,17.20
2019,07,04,00,33,17.10
2019,07,04,00,34,17.10
2019,07,04,00,35,17.10
2019,07,04,00,36,17.10
2019,07,04,00,37,17.10
2019,07,04,00,38,17.10
2019,07,04,00,39,17.00
2019,07,04,00,40,17.00
2019,07,04,00,41,17.00
2019,07,04,00,42,17.00
2019,07,04,00,43,16.90
2019,07,04,00,44,16.90
2019,07,04,00,45,16.90
2019,07,04,00,46,16.90
2019,07,04,00,47,16.80
2019,07,04,00,48,16.80
2019,07,04,00,49,16.80
2019,07,04,00,50,16.80
2019,07,04,00,51,16.80
2019,07,04,00,52,16.80
2019,07,04,00,53,16.70
2019,07,04,00,54,16.70
2019,07,04,00,55,16.70
2019,07,04,00,56,16.70
2019,07,04,00,57,16.70
2019,07,04,00,58,16.70
2019,07,04,00,59,16.70
2019,07,04,01,00,16.60
2019,07,04,01,01,16.60
2019,07,04,01,02,16.60
2019,07,04,01,03,16.60
2019,07,04,01,04,16.60
2019,07,04,01,05,16.60
2019,07,04,01,06,16.60
2019,07,04,01,07,16.60
2019,07,04,01,08,16.60
2019,07,04,01,09,16.60
2019,07,04,01,10,16.60
2019,07,04,01,11,16.50
2019,07,04,01,12,16.50
2019,07,04,01,13,16.50
2019,07,04,01,14,16.40
2019,07,04,01,15,16.40
2019,07,04,01,16,16.40
2019,07,04,01,17,16.40
2019,07,04,01,18,16.40
2019,07,04,01,19,16.40
2019,07,04,01,20,16.40
2019,07,04,01,21,16.40
2019,07,04,01,22,16.40
2019,07,04,01,23,16.40
2019,07,04,01,24,16.40
2019,07,04,01,25,16.40
2019,07,04,01,26,16.40
2019,07,04,01,27,16.40
2019,07,04,01,28,16.40
2019,07,04,01,29,16.40
2019,07,04,01,30,16.40
2019,07,04,01,31,16.40
2019,07,04,01,32,16.40
2019,07,04,01,33,16.40
2019,07,04,01,34,16.40
2019,07,04,01,35,16.40
2019,07,04,01,36,16.40
2019,07,04,01,37,16.40
2019,07,04,01,38,16.40
2019,07,04,01,39,16.40
2019,07,04,01,40,16.40
2019,07,04,01,41,16.40
2019,07,04,01,42,16.40
2019,07,04,01,43,16.40
2019,07,04,01,44,16.40
2019,07,04,01,45,16.40
2019,07,04,01,46,16.40
2019,07,04,01,47,16.40
2019,07,04,01,48,16.40
2019,07,04,01,49,16.40
2019,07,04,01,50,16.40
2019,07,04,01,51,16.40
2019,07,04,01,52,16.40
2019,07,04,01,53,16.40
2019,07,04,01,54,16.40
2019,07,04,01,55,16.40
2019,07,04,01,56,16.40
2019,07,04,01,57,16.40
2019,07,04,01,58,16.40
2019,07,04,01,59,16.40
2019,07,04,02,00,16.40
2019,07,04,02,01,16.40
2019,07,04,02,02,16.40
2019,07,04,02,03,16.40
2019,07,04,02,04,16.40
2019,07,04,02,05,16.40
2019,07,04,02,06,16.40
2019,07,04,02,07,16.40
2019,07,04,02,08,16.40
2019,07,04,02,09,16.40
2019,07,04,02,10,16.40
2019,07,04,02,11,16.50
2019,07,04,02,12,16.50
2019,07,04,02,13,16.50
2019,07,04,02,14,16.60
2019,07,04,02,15,16.60
2019,07,04,02,16,16.60
2019,07,04,02,17,16.60
2019,07,04,02,18,16.60
2019,07,04,02,19,16.60
2019,07,04,02,20,16.70
2019,07,04,02,21,16.70
2019,07,04,02,22,16.70
2019,07,04,02,23,16.70
2019,07,04,02,24,16.70
2019,07,04,02,25,16.70
2019,07,04,02,26,16.70
2019,07,04,02,27,16.70
2019,07,04,02,28,16.70
2019,07,04,02,29,16.70
2019,07,04,02,30,16.70
2019,07,04,02,31,16.60
2019,07,04,02,32,16.60
2019,07,04,02,33,16.60
2019,07,04,02,34,16.60
2019,07,04,02,35,16.60
2019,07,04,02,36,16.60
2019,07,04,02,37,16.60
2019,07,04,02,38,16.60
2019,07,04,02,39,16.60
2019,07,04,02,40,16.60
2019,07,04,02,41,16.60
2019,07,04,02,42,16.60
2019,07,04,02,43,16.60
2019,07,04,02,44,16.60
2019,07,04,02,45,16.50
2019,07,04,02,46,16.50
2019,07,04,02,47,16.40
2019,07,04,02,48,16.40
2019,07,04,02,49,16.40
2019,07,04,02,50,16.40
2019,07,04,02,51,16.40
2019,07,04,02,52,16.40
2019,07,04,02,53,16.40
2019,07,04,02,54,16.40
2019,07,04,02,55,16.40
2019,07,04,02,56,16.40
2019,07,04,02,57,16.40
2019,07,04,02,58,16.40
2019,07,04,02,59,16.40
2019,07,04,03,00,16.40
2019,07,04,03,01,16.40
2019,07,04,03,02,16.40
2019,07,04,03,03,16.40
2019,07,04,03,04,16.40
2019,07,04,03,05,16.40
2019,07,04,03,06,16.40
2019,07,04,03,07,16.40
2019,07,04,03,08,16.30
2019,07,04,03,09,16.30
2019,07,04,03,10,16.30
2019,07,04,03,11,16.20
2019,07,04,03,12,16.20
2019,07,04,03,13,16.20
2019,07,04,03,14,16.20
2019,07,04,03,15,16.10
2019,07,04,03,16,16.10
2019,07,04,03,17,16.10
2019,07,04,03,18,16.00
2019,07,04,03,19,16.00
2019,07,04,03,20,16.00
2019,07,04,03,21,15.90
2019,07,04,03,22,15.90
2019,07,04,03,23,15.80
2019,07,04,03,24,15.70
2019,07,04,03,25,15.70
2019,07,04,03,26,15.60
2019,07,04,03,27,15.60
2019,07,04,03,28,15.50
2019,07,04,03,29,15.50
2019,07,04,03,30,15.40
2019,07,04,03,31,15.40
2019,07,04,03,32,15.40
2019,07,04,03,33,15.40
2019,07,04,03,34,15.40
2019,07,04,03,35,15.40
2019,07,04,03,36,15.40
2019,07,04,03,37,15.40
2019,07,04,03,38,15.40
2019,07,04,03,39,15.40
2019,07,04,03,40,15.40
2019,07,04,03,41,15.40
2019,07,04,03,42,15.40
2019,07,04,03,43,15.50
2019,07,04,03,44,15.50
2019,07,04,03,45,15.50
2019,07,04,03,46,15.50
2019,07,04,03,47,15.50
2019,07,04,03,48,15.50
2019,07,04,03,49,15.50
2019,07,04,03,50,15.50
2019,07,04,03,51,15.50
2019,07,04,03,52,15.40
2019,07,04,03,53,15.50
2019,07,04,03,54,15.40
2019,07,04,03,55,15.40
2019,07,04,03,56,15.40
2019,07,04,03,57,15.40
2019,07,04,03,58,15.40
2019,07,04,03,59,15.40
2019,07,04,04,00,15.40
2019,07,04,04,01,15.40
2019,07,04,04,02,15.40
2019,07,04,04,03,15.40
2019,07,04,04,04,15.40
2019,07,04,04,05,15.50
2019,07,04,04,06,15.50
2019,07,04,04,07,15.50
2019,07,04,04,08,15.60
2019,07,04,04,09,15.60
2019,07,04,04,10,15.60
2019,07,04,04,11,15.60
2019,07,04,04,12,15.60
2019,07,04,04,13,15.60
2019,07,04,04,14,15.60
2019,07,04,04,15,15.60
2019,07,04,04,16,15.60
2019,07,04,04,17,15.70
2019,07,04,04,18,15.60
2019,07,04,04,19,15.70
2019,07,04,04,20,15.70
2019,07,04,04,21,15.60
2019,07,04,04,22,15.70
2019,07,04,04,23,15.70
2019,07,04,04,24,15.70
2019,07,04,04,25,15.70
2019,07,04,04,26,15.60
2019,07,04,04,27,15.60
2019,07,04,04,28,15.60
2019,07,04,04,29,15.60
2019,07,04,04,30,15.60
2019,07,04,04,31,15.60
2019,07,04,04,32,15.50
2019,07,04,04,33,15.50
2019,07,04,04,34,15.50
2019,07,04,04,35,15.40
2019,07,04,04,36,15.50
2019,07,04,04,37,15.40
2019,07,04,04,38,15.40
2019,07,04,04,39,15.40
2019,07,04,04,40,15.40
2019,07,04,04,41,15.40
2019,07,04,04,42,15.30
2019,07,04,04,43,15.30
2019,07,04,04,44,15.30
2019,07,04,04,45,15.20
2019,07,04,04,46,15.20
2019,07,04,04,47,15.20
2019,07,04,04,48,15.20
2019,07,04,04,49,15.20
2019,07,04,04,50,15.20
2019,07,04,04,51,15.20
2019,07,04,04,52,15.20
2019,07,04,04,53,15.20
2019,07,04,04,54,15.20
2019,07,04,04,55,15.20
2019,07,04,04,56,15.20
2019,07,04,04,57,15.20
2019,07,04,04,58,15.10
2019,07,04,04,59,15.10
2019,07,04,05,00,15.10
2019,07,04,05,01,15.10
2019,07,04,05,02,15.10
2019,07,04,05,03,15.10
2019,07,04,05,04,15.00
2019,07,04,05,05,15.00
2019,07,04,05,06,15.00
2019,07,04,05,07,15.00
2019,07,04,05,08,15.00
2019,07,04,05,09,14.90
2019,07,04,05,10,14.90
2019,07,04,05,11,14.90
2019,07,04,05,12,14.90
2019,07,04,05,13,14.90
2019,07,04,05,14,14.90
2019,07,04,05,15,14.90
2019,07,04,05,16,14.90
2019,07,04,05,17,15.00
2019,07,04,05,18,15.00
2019,07,04,05,19,15.00
2019,07,04,05,20,15.00
2019,07,04,05,21,15.00
2019,07,04,05,22,15.00
2019,07,04,05,23,15.00
2019,07,04,05,24,15.00
2019,07,04,05,25,15.10
2019,07,04,05,26,15.10
2019,07,04,05,27,15.10
2019,07,04,05,28,15.10
2019,07,04,05,29,15.10
2019,07,04,05,30,15.10
2019,07,04,05,31,15.10
2019,07,04,05,32,15.20
2019,07,04,05,33,15.20
2019,07,04,05,34,15.20
2019,07,04,05,35,15.10
2019,07,04,05,36,15.20
2019,07,04,05,37,15.20
2019,07,04,05,38,15.20
2019,07,04,05,39,15.20
2019,07,04,05,40,15.20
2019,07,04,05,41,15.20
2019,07,04,05,42,15.20
2019,07,04,05,43,15.20
2019,07,04,05,44,15.20
2019,07,04,05,45,15.20
2019,07,04,05,46,15.20
2019,07,04,05,47,15.20
2019,07,04,05,48,15.20
2019,07,04,05,49,15.20
2019,07,04,05,50,15.20
2019,07,04,05,51,15.20
2019,07,04,05,52,15.20
2019,07,04,05,53,15.20
2019,07,04,05,54,15.20
2019,07,04,05,55,15.20
2019,07,04,05,56,15.30
2019,07,04,05,57,15.30
2019,07,04,05,58,15.30
2019,07,04,05,59,15.30
2019,07,04,06,00,15.20
2019,07,04,06,01,15.20
2019,07,04,06,02,15.20
2019,07,04,06,03,15.20
2019,07,04,06,04,15.20
2019,07,04,06,05,15.20
2019,07,04,06,06,15.20
2019,07,04,06,07,15.20
2019,07,04,06,08,15.20
2019,07,04,06,09,15.20
2019,07,04,06,10,15.20
2019,07,04,06,11,15.10
2019,07,04,06,12,15.10
2019,07,04,06,13,15.10
2019,07,04,06,14,15.10
2019,07,04,06,15,15.20
2019,07,04,06,16,15.20
2019,07,04,06,17,15.20
2019,07,04,06,18,15.20
2019,07,04,06,19,15.10
2019,07,04,06,20,15.10
2019,07,04,06,21,15.20
2019,07,04,06,22,15.20
2019,07,04,06,23,15.10
2019,07,04,06,24,15.10
2019,07,04,06,25,15.10
2019,07,04,06,26,15.10
2019,07,04,06,27,15.10
2019,07,04,06,28,15.10
2019,07,04,06,29,15.10
2019,07,04,06,30,15.10
2019,07,04,06,31,15.10
2019,07,04,06,32,15.10
2019,07,04,06,33,15.10
2019,07,04,06,34,15.00
2019,07,04,06,35,15.00
2019,07,04,06,36,15.00
2019,07,04,06,37,15.00
2019,07,04,06,38,15.00
2019,07,04,06,39,14.90
2019,07,04,06,40,14.90
2019,07,04,06,41,15.00
2019,07,04,06,42,14.90
2019,07,04,06,43,14.90
2019,07,04,06,44,14.90
2019,07,04,06,45,15.00
2019,07,04,06,46,14.90
2019,07,04,06,47,14.90
2019,07,04,06,48,14.90
2019,07,04,06,49,14.90
2019,07,04,06,50,14.90
2019,07,04,06,51,14.90
2019,07,04,06,52,14.90
2019,07,04,06,53,14.90
2019,07,04,06,54,14.90
2019,07,04,06,55,14.90
2019,07,04,06,56,14.90
2019,07,04,06,57,14.90
2019,07,04,06,58,14.90
2019,07,04,06,59,14.90
2019,07,04,07,00,14.90
2019,07,04,07,01,14.90
2019,07,04,07,02,14.90
2019,07,04,07,03,14.90
2019,07,04,07,04,14.80
2019,07,04,07,05,14.80
2019,07,04,07,06,14.80
2019,07,04,07,07,14.80
2019,07,04,07,08,14.80
2019,07,04,07,09,14.80
2019,07,04,07,10,14.80
2019,07,04,07,11,14.80
2019,07,04,07,12,14.80
2019,07,04,07,13,14.80
2019,07,04,07,14,14.80
2019,07,04,07,15,14.70
2019,07,04,07,16,14.70
2019,07,04,07,17,14.80
2019,07,04,07,18,14.70
2019,07,04,07,19,14.80
2019,07,04,07,20,14.80
2019,07,04,07,21,14.80
2019,07,04,07,22,14.80
2019,07,04,07,23,14.80
2019,07,04,07,24,14.80
2019,07,04,07,25,14.80
2019,07,04,07,26,14.80
2019,07,04,07,27,14.80
2019,07,04,07,28,14.90
2019,07,04,07,29,14.90
2019,07,04,07,30,14.90
2019,07,04,07,31,14.90
2019,07,04,07,32,14.90
2019,07,04,07,33,14.90
2019,07,04,07,34,15.00
2019,07,04,07,35,15.00
2019,07,04,07,36,15.10
2019,07,04,07,37,15.10
2019,07,04,07,38,15.10
2019,07,04,07,39,15.10
2019,07,04,07,40,15.20
2019,07,04,07,41,15.20
2019,07,04,07,42,15.20
2019,07,04,07,43,15.20
2019,07,04,07,44,15.30
2019,07,04,07,45,15.30
2019,07,04,07,46,15.30
2019,07,04,07,47,15.30
2019,07,04,07,48,15.30
2019,07,04,07,49,15.40
2019,07,04,07,50,15.40
2019,07,04,07,51,15.40
2019,07,04,07,52,15.50
2019,07,04,07,53,15.50
2019,07,04,07,54,15.50
2019,07,04,07,55,15.50
2019,07,04,07,56,15.50
2019,07,04,07,57,15.60
2019,07,04,07,58,15.60
2019,07,04,07,59,15.60
2019,07,04,08,00,15.60
2019,07,04,08,01,15.60
2019,07,04,08,02,15.70
2019,07,04,08,03,15.70
2019,07,04,08,04,15.70
2019,07,04,08,05,15.70
2019,07,04,08,06,15.70
2019,07,04,08,07,15.70
2019,07,04,08,08,15.70
2019,07,04,08,09,15.70
2019,07,04,08,10,15.70
2019,07,04,08,11,15.70
2019,07,04,08,12,15.70
2019,07,04,08,13,15.70
2019,07,04,08,14,15.70
2019,07,04,08,15,15.70
2019,07,04,08,16,15.70
2019,07,04,08,17,15.70
2019,07,04,08,18,15.70
2019,07,04,08,19,15.80
2019,07,04,08,20,15.80
2019,07,04,08,21,15.80
2019,07,04,08,22,15.80
2019,07,04,08,23,15.80
2019,07,04,08,24,15.80
2019,07,04,08,25,15.80
2019,07,04,08,26,15.80
2019,07,04,08,27,15.80
2019,07,04,08,28,15.80
2019,07,04,08,29,15.80
2019,07,04,08,30,15.80
2019,07,04,08,31,15.80
2019,07,04,08,32,15.80
2019,07,04,08,33,15.80
2019,07,04,08,34,15.80
2019,07,04,08,35,15.80
2019,07,04,08,36,15.80
2019,07,04,08,37,15.80
2019,07,04,08,38,15.80
2019,07,04,08,39,15.80
2019,07,04,08,40,15.80
2019,07,04,08,41,15.90
2019,07,04,08,42,15.90
2019,07,04,08,43,15.90
2019,07,04,08,44,15.90
2019,07,04,08,45,15.90
2019,07,04,08,46,15.90
2019,07,04,08,47,15.90
2019,07,04,08,48,15.90
2019,07,04,08,49,15.90
2019,07,04,08,50,15.90
2019,07,04,08,51,15.90
2019,07,04,08,52,16.00
2019,07,04,08,53,15.90
2019,07,04,08,54,16.00
2019,07,04,08,55,16.00
2019,07,04,08,56,16.00
2019,07,04,08,57,16.00
2019,07,04,08,58,16.00
2019,07,04,08,59,16.00
2019,07,04,09,00,16.10
2019,07,04,09,01,16.10
2019,07,04,09,02,16.10
2019,07,04,09,03,16.10
2019,07,04,09,04,16.10
2019,07,04,09,05,16.10
2019,07,04,09,06,16.10
2019,07,04,09,07,16.10
2019,07,04,09,08,16.10
2019,07,04,09,09,16.10
2019,07,04,09,10,16.10
2019,07,04,09,11,16.10
2019,07,04,09,12,16.10
2019,07,04,09,13,16.10
2019,07,04,09,14,16.10
2019,07,04,09,15,16.10
2019,07,04,09,16,16.10
2019,07,04,09,17,16.10
2019,07,04,09,18,16.10
2019,07,04,09,19,16.10
2019,07,04,09,20,16.10
2019,07,04,09,21,16.10
2019,07,04,09,22,16.10
2019,07,04,09,23,16.10
2019,07,04,09,24,16.10
2019,07,04,09,25,16.10
2019,07,04,09,26,16.10
2019,07,04,09,27,16.10
2019,07,04,09,28,16.20
2019,07,04,09,29,16.20
2019,07,04,09,30,16.20
2019,07,04,09,31,16.20
2019,07,04,09,32,16.20
2019,07,04,09,33,16.20
2019,07,04,09,34,16.20
2019,07,04,09,35,16.20
2019,07,04,09,36,16.30
2019,07,04,09,37,16.30
2019,07,04,09,38,16.30
2019,07,04,09,39,16.30
2019,07,04,09,40,16.40
2019,07,04,09,41,16.40
2019,07,04,09,42,16.40
2019,07,04,09,43,16.40
2019,07,04,09,44,16.40
2019,07,04,09,45,16.40
2019,07,04,09,46,16.40
2019,07,04,09,47,16.40
2019,07,04,09,48,16.50
2019,07,04,09,49,16.50
2019,07,04,09,50,16.50
2019,07,04,09,51,16.60
2019,07,04,09,52,16.70
2019,07,04,09,53,16.70
2019,07,04,09,54,16.70
2019,07,04,09,55,16.70
2019,07,04,09,56,16.80
2019,07,04,09,57,16.80
2019,07,04,09,58,16.80
2019,07,04,09,59,16.80
2019,07,04,10,00,16.80
2019,07,04,10,01,16.80
2019,07,04,10,02,16.80
2019,07,04,10,03,16.80
2019,07,04,10,04,16.80
2019,07,04,10,05,16.80
2019,07,04,10,06,16.90
2019,07,04,10,07,16.90
2019,07,04,10,08,16.90
2019,07,04,10,09,16.90
2019,07,04,10,10,16.90
2019,07,04,10,11,16.90
2019,07,04,10,12,16.90
2019,07,04,10,13,16.90
2019,07,04,10,14,17.00
2019,07,04,10,15,17.00
2019,07,04,10,16,17.00
2019,07,04,10,17,17.10
2019,07,04,10,18,17.10
2019,07,04,10,19,17.10
2019,07,04,10,20,17.20
2019,07,04,10,21,17.20
2019,07,04,10,22,17.30
2019,07,04,10,23,17.30
2019,07,04,10,24,17.30
2019,07,04,10,25,17.30
2019,07,04,10,26,17.40
2019,07,04,10,27,17.40
2019,07,04,10,28,17.40
2019,07,04,10,29,17.40
2019,07,04,10,30,17.50
2019,07,04,10,31,17.50
2019,07,04,10,32,17.60
2019,07,04,10,33,17.60
2019,07,04,10,34,17.50
2019,07,04,10,35,17.50
2019,07,04,10,36,17.50
2019,07,04,10,37,17.40
2019,07,04,10,38,17.40
2019,07,04,10,39,17.40
2019,07,04,10,40,17.40
2019,07,04,10,41,17.40
2019,07,04,10,42,17.40
2019,07,04,10,43,17.40
2019,07,04,10,44,17.40
2019,07,04,10,45,17.40
2019,07,04,10,46,17.40
2019,07,04,10,47,17.40
2019,07,04,10,48,17.40
2019,07,04,10,49,17.40
2019,07,04,10,50,17.40
2019,07,04,10,51,17.50
2019,07,04,10,52,17.50
2019,07,04,10,53,17.50
2019,07,04,10,54,17.50
2019,07,04,10,55,17.50
2019,07,04,10,56,17.50
2019,07,04,10,57,17.50
2019,07,04,10,58,17.50
2019,07,04,10,59,17.50
2019,07,04,11,00,17.50
2019,07,04,11,01,17.50
2019,07,04,11,02,17.60
2019,07,04,11,03,17.60
2019,07,04,11,04,17.70
2019,07,04,11,05,17.70
2019,07,04,11,06,17.80
2019,07,04,11,07,17.80
2019,07,04,11,08,17.80
2019,07,04,11,09,17.80
2019,07,04,11,10,17.80
2019,07,04,11,11,17.80
2019,07,04,11,12,17.80
2019,07,04,11,13,17.80
2019,07,04,11,14,17.90
2019,07,04,11,15,17.90
2019,07,04,11,16,17.90
2019,07,04,11,17,17.90
2019,07,04,11,18,18.00
2019,07,04,11,19,18.00
2019,07,04,11,20,18.10
2019,07,04,11,21,18.10
2019,07,04,11,22,18.10
2019,07,04,11,23,18.10
2019,07,04,11,24,18.00
2019,07,04,11,25,18.00
2019,07,04,11,26,18.00
2019,07,04,11,27,18.00
2019,07,04,11,28,18.10
2019,07,04,11,29,18.10
2019,07,04,11,30,18.10
2019,07,04,11,31,18.10
2019,07,04,11,32,18.10
2019,07,04,11,33,18.10
2019,07,04,11,34,18.10
2019,07,04,11,35,18.00
2019,07,04,11,36,18.00
2019,07,04,11,37,18.00
2019,07,04,11,38,18.00
2019,07,04,11,39,18.00
2019,07,04,11,40,18.00
2019,07,04,11,41,18.10
2019,07,04,11,42,18.10
2019,07,04,11,43,18.10
2019,07,04,11,44,18.10
2019,07,04,11,45,18.10
2019,07,04,11,46,18.20
2019,07,04,11,47,18.20
2019,07,04,11,48,18.20
2019,07,04,11,49,18.20
2019,07,04,11,50,18.20
2019,07,04,11,51,18.20
2019,07,04,11,52,18.30
2019,07,04,11,53,18.30
2019,07,04,11,54,18.20
2019,07,04,11,55,18.30
2019,07,04,11,56,18.30
2019,07,04,11,57,18.20
2019,07,04,11,58,18.30
2019,07,04,11,59,18.30
2019,07,04,12,00,18.30
2019,07,04,12,01,18.30
2019,07,04,12,02,18.30
2019,07,04,12,03,18.30
2019,07,04,12,04,18.40
2019,07,04,12,05,18.40
2019,07,04,12,06,18.40
2019,07,04,12,07,18.50
2019,07,04,12,08,18.50
2019,07,04,12,09,18.50
2019,07,04,12,10,18.50
2019,07,04,12,11,18.50
2019,07,04,12,12,18.50
2019,07,04,12,13,18.50
2019,07,04,12,14,18.50
2019,07,04,12,15,18.50
2019,07,04,12,16,18.50
2019,07,04,12,17,18.50
2019,07,04,12,18,18.50
2019,07,04,12,19,18.50
2019,07,04,12,20,18.40
2019,07,04,12,21,18.50
2019,07,04,12,22,18.50
2019,07,04,12,23,18.50
2019,07,04,12,24,18.40
2019,07,04,12,25,18.50
2019,07,04,12,26,18.50
2019,07,04,12,27,18.50
2019,07,04,12,28,18.50
2019,07,04,12,29,18.50
2019,07,04,12,30,18.50
2019,07,04,12,31,18.50
2019,07,04,12,32,18.50
2019,07,04,12,33,18.50
2019,07,04,12,34,18.50
2019,07,04,12,35,18.50
2019,07,04,12,36,18.50
2019,07,04,12,37,18.60
2019,07,04,12,38,18.60
2019,07,04,12,39,18.60
2019,07,04,12,40,18.60
2019,07,04,12,41,18.60
2019,07,04,12,42,18.50
2019,07,04,12,43,18.50
2019,07,04,12,44,18.50
2019,07,04,12,45,18.50
2019,07,04,12,46,18.50
2019,07,04,12,47,18.50
2019,07,04,12,48,18.50
2019,07,04,12,49,18.50
2019,07,04,12,50,18.50
2019,07,04,12,51,18.60
2019,07,04,12,52,18.60
2019,07,04,12,53,18.60
2019,07,04,12,54,18.70
2019,07,04,12,55,18.70
2019,07,04,12,56,18.70
2019,07,04,12,57,18.70
2019,07,04,12,58,18.80
2019,07,04,12,59,18.80
2019,07,04,13,00,18.80
2019,07,04,13,01,18.90
2019,07,04,13,02,18.90
2019,07,04,13,03,18.90
2019,07,04,13,04,18.90
2019,07,04,13,05,18.90
2019,07,04,13,06,18.90
2019,07,04,13,07,18.90
2019,07,04,13,08,18.90
2019,07,04,13,09,18.90
2019,07,04,13,10,18.90
2019,07,04,13,11,18.90
2019,07,04,13,12,18.90
2019,07,04,13,13,19.00
2019,07,04,13,14,19.00
2019,07,04,13,15,19.00
2019,07,04,13,16,19.00
2019,07,04,13,17,19.10
2019,07,04,13,18,19.10
2019,07,04,13,19,19.10
2019,07,04,13,20,19.10
2019,07,04,13,21,19.10
2019,07,04,13,22,19.10
2019,07,04,13,23,19.10
2019,07,04,13,24,19.10
2019,07,04,13,25,19.10
2019,07,04,13,26,19.10
2019,07,04,13,27,19.20
2019,07,04,13,28,19.20
2019,07,04,13,29,19.20
2019,07,04,13,30,19.30
2019,07,04,13,31,19.40
2019,07,04,13,32,19.50
2019,07,04,13,33,19.60
2019,07,04,13,34,19.60
2019,07,04,13,35,19.70
2019,07,04,13,36,19.70
2019,07,04,13,37,19.60
2019,07,04,13,38,19.50
2019,07,04,13,39,19.40
2019,07,04,13,40,19.30
2019,07,04,13,41,19.20
2019,07,04,13,42,19.20
2019,07,04,13,43,19.20
2019,07,04,13,44,19.20
2019,07,04,13,45,19.20
2019,07,04,13,46,19.30
2019,07,04,13,47,19.30
2019,07,04,13,48,19.50
2019,07,04,13,49,19.60
2019,07,04,13,50,19.70
2019,07,04,13,51,19.80
2019,07,04,13,52,19.90
2019,07,04,13,53,20.00
2019,07,04,13,54,20.00
2019,07,04,13,55,19.90
2019,07,04,13,56,19.90
2019,07,04,13,57,19.90
2019,07,04,13,58,19.80
2019,07,04,13,59,19.80
2019,07,04,14,00,19.70
2019,07,04,14,01,19.70
2019,07,04,14,02,19.60
2019,07,04,14,03,19.60
2019,07,04,14,04,19.60
2019,07,04,14,05,19.50
2019,07,04,14,06,19.50
2019,07,04,14,07,19.40
2019,07,04,14,08,19.40
2019,07,04,14,09,19.40
2019,07,04,14,10,19.30
2019,07,04,14,11,19.20
2019,07,04,14,12,19.20
2019,07,04,14,13,19.10
2019,07,04,14,14,19.10
2019,07,04,14,15,19.10
2019,07,04,14,16,19.10
2019,07,04,14,17,19.10
2019,07,04,14,18,19.20
2019,07,04,14,19,19.20
2019,07,04,14,20,19.30
2019,07,04,14,21,19.30
2019,07,04,14,22,19.30
2019,07,04,14,23,19.30
2019,07,04,14,24,19.30
2019,07,04,14,25,19.30
2019,07,04,14,26,19.40
2019,07,04,14,27,19.40
2019,07,04,14,28,19.50
2019,07,04,14,29,19.50
2019,07,04,14,30,19.50
2019,07,04,14,31,19.50
2019,07,04,14,32,19.50
2019,07,04,14,33,19.50
2019,07,04,14,34,19.60
2019,07,04,14,35,19.60
2019,07,04,14,36,19.60
2019,07,04,14,37,19.60
2019,07,04,14,38,19.60
2019,07,04,14,39,19.60
2019,07,04,14,40,19.60
2019,07,04,14,41,19.60
2019,07,04,14,42,19.60
2019,07,04,14,43,19.60
2019,07,04,14,44,19.60
2019,07,04,14,45,19.50
2019,07,04,14,46,19.50
2019,07,04,14,47,19.50
2019,07,04,14,48,19.50
2019,07,04,14,49,19.60
2019,07,04,14,50,19.60
2019,07,04,14,51,19.70
2019,07,04,14,52,19.70
2019,07,04,14,53,19.70
2019,07,04,14,54,19.70
2019,07,04,14,55,19.70
2019,07,04,14,56,19.60
2019,07,04,14,57,19.60
2019,07,04,14,58,19.60
2019,07,04,14,59,19.70
2019,07,04,15,00,19.70
2019,07,04,15,01,19.80
2019,07,04,15,02,19.80
2019,07,04,15,03,19.80
2019,07,04,15,04,19.80
2019,07,04,15,05,19.80
2019,07,04,15,06,19.80
2019,07,04,15,07,19.80
2019,07,04,15,08,19.90
2019,07,04,15,09,19.90
2019,07,04,15,10,19.80
2019,07,04,15,11,19.80
2019,07,04,15,12,19.90
2019,07,04,15,13,19.90
2019,07,04,15,14,19.90
2019,07,04,15,15,19.90
2019,07,04,15,16,19.90
2019,07,04,15,17,19.80
2019,07,04,15,18,19.80
2019,07,04,15,19,19.80
2019,07,04,15,20,19.80
2019,07,04,15,21,19.80
2019,07,04,15,22,19.80
2019,07,04,15,23,19.80
2019,07,04,15,24,19.80
2019,07,04,15,25,19.80
2019,07,04,15,26,19.80
2019,07,04,15,27,19.80
2019,07,04,15,28,19.90
2019,07,04,15,29,19.90
2019,07,04,15,30,19.90
2019,07,04,15,31,19.90
2019,07,04,15,32,19.90
2019,07,04,15,33,19.90
2019,07,04,15,34,19.90
2019,07,04,15,35,19.90
2019,07,04,15,36,19.90
2019,07,04,15,37,19.90
2019,07,04,15,38,19.80
2019,07,04,15,39,19.90
2019,07,04,15,40,19.90
2019,07,04,15,41,19.90
2019,07,04,15,42,19.80
2019,07,04,15,43,19.80
2019,07,04,15,44,19.80
2019,07,04,15,45,19.70
2019,07,04,15,46,19.60
2019,07,04,15,47,19.60
2019,07,04,15,48,19.60
2019,07,04,15,49,19.60
2019,07,04,15,50,19.50
2019,07,04,15,51,19.60
2019,07,04,15,52,19.50
2019,07,04,15,53,19.60
2019,07,04,15,54,19.60
2019,07,04,15,55,19.60
2019,07,04,15,56,19.60
2019,07,04,15,57,19.60
2019,07,04,15,58,19.60
2019,07,04,15,59,19.60
2019,07,04,16,00,19.60
2019,07,04,16,01,19.60
2019,07,04,16,02,19.60
2019,07,04,16,03,19.60
2019,07,04,16,04,19.60
2019,07,04,16,05,19.60
2019,07,04,16,06,19.60
2019,07,04,16,07,19.60
2019,07,04,16,08,19.70
2019,07,04,16,09,19.70
2019,07,04,16,10,19.70
2019,07,04,16,11,19.70
2019,07,04,16,12,19.70
2019,07,04,16,13,19.70
2019,07,04,16,14,19.70
2019,07,04,16,15,19.60
2019,07,04,16,16,19.60
2019,07,04,16,17,19.60
2019,07,04,16,18,19.60
2019,07,04,16,19,19.50
2019,07,04,16,20,19.50
2019,07,04,16,21,19.50
2019,07,04,16,22,19.50
2019,07,04,16,23,19.40
2019,07,04,16,24,19.40
2019,07,04,16,25,19.30
2019,07,04,16,26,19.30
2019,07,04,16,27,19.20
2019,07,04,16,28,19.10
2019,07,04,16,29,19.10
2019,07,04,16,30,19.10
2019,07,04,16,31,19.10
2019,07,04,16,32,19.10
2019,07,04,16,33,19.10
2019,07,04,16,34,19.10
2019,07,04,16,35,19.10
2019,07,04,16,36,19.10
2019,07,04,16,37,19.00
2019,07,04,16,38,19.00
2019,07,04,16,39,19.00
2019,07,04,16,40,19.00
2019,07,04,16,41,19.00
2019,07,04,16,42,19.00
2019,07,04,16,43,19.00
2019,07,04,16,44,19.00
2019,07,04,16,45,19.10
2019,07,04,16,46,19.10
2019,07,04,16,47,19.10
2019,07,04,16,48,19.10
2019,07,04,16,49,19.10
2019,07,04,16,50,19.10
2019,07,04,16,51,19.10
2019,07,04,16,52,19.00
2019,07,04,16,53,19.00
2019,07,04,16,54,18.90
2019,07,04,16,55,18.90
2019,07,04,16,56,18.90
2019,07,04,16,57,18.90
2019,07,04,16,58,18.90
2019,07,04,16,59,18.90
2019,07,04,17,00,18.90
2019,07,04,17,01,18.90
2019,07,04,17,02,19.00
2019,07,04,17,03,19.00
2019,07,04,17,04,19.00
2019,07,04,17,05,19.00
2019,07,04,17,06,19.00
2019,07,04,17,07,18.90
2019,07,04,17,08,18.90
2019,07,04,17,09,18.90
2019,07,04,17,10,18.90
2019,07,04,17,11,18.90
2019,07,04,17,12,18.80
2019,07,04,17,13,18.80
2019,07,04,17,14,18.80
2019,07,04,17,15,18.80
2019,07,04,17,16,18.70
2019,07,04,17,17,18.70
2019,07,04,17,18,18.70
2019,07,04,17,19,18.70